When you browse on this site, cookies collect data to enhance your experience and personalize the content and advertising you see.
Visit our Privacy Policy to learn more. By continuing to use the site, you agree to this use of cookies and data.
  • In Czech Republic
  • List of Countries
  • For 7 days
  • Water Temperature
  • Weather Map
  • Weather Widgets
  • user-avatar
    Login

    Hourly Weather Piedecuesta

    Today, 15 November, Friday

    Time Temperature Precipitation Wind Pressure Humidity
    00:00 +19°C° 0.1 mm 0 mps 670 mmHg 95%
    01:00 +19°C° 0 mm 0 mps 670 mmHg 96%
    02:00 +19°C° 0.3 mm 0 mps 670 mmHg 96%
    03:00 +19°C° 0.3 mm 0 mps 670 mmHg 95%
    04:00 +20°C° 0.3 mm 0 mps 670 mmHg 94%
    05:00 +20°C° 0.1 mm 0 mps 670 mmHg 93%
    06:00 +20°C° 0.1 mm 0 mps 671 mmHg 93%
    07:00 +21°C° 0 mm 0 mps 671 mmHg 92%
    08:00 +21°C° 0.2 mm 0 mps 671 mmHg 90%
    09:00 +24°C° 0.2 mm 1 mps 671 mmHg 89%
    10:00 +25°C° 0.2 mm 1 mps 672 mmHg 87%
    11:00 +25°C° 0.5 mm 1 mps 671 mmHg 86%
    12:00 +26°C° 0.5 mm 1 mps 670 mmHg 85%
    13:00 +26°C° 0.5 mm 1 mps 669 mmHg 84%
    14:00 +26°C° 0.9 mm 1 mps 669 mmHg 86%
    15:00 +25°C° 0.9 mm 1 mps 668 mmHg 88%
    16:00 +25°C° 0.9 mm 1 mps 668 mmHg 90%
    17:00 +24°C° 0.4 mm 1 mps 668 mmHg 92%
    18:00 +23°C° 0.4 mm 1 mps 669 mmHg 94%
    19:00 +21°C° 0.4 mm 0 mps 669 mmHg 96%
    20:00 +20°C° 0.1 mm 0 mps 670 mmHg 96%
    21:00 +20°C° 0.1 mm 0 mps 670 mmHg 95%
    22:00 +20°C° 0.1 mm 0 mps 670 mmHg 95%
    23:00 +19°C° 0.2 mm 0 mps 670 mmHg 95%

    Tomorrow, 16 November, Saturday

    Time Temperature Precipitation Wind Pressure Humidity
    00:00 +19°C° 0.2 mm 0 mps 669 mmHg 94%
    01:00 +19°C° 0.2 mm 0 mps 669 mmHg 94%
    02:00 +19°C° 0.1 mm 0 mps 669 mmHg 94%
    03:00 +19°C° 0.1 mm 0 mps 669 mmHg 94%
    04:00 +19°C° 0.1 mm 0 mps 669 mmHg 93%
    05:00 +20°C° 0 mm 0 mps 669 mmHg 92%
    06:00 +20°C° 0 mm 0 mps 669 mmHg 91%
    07:00 +21°C° 0 mm 0 mps 670 mmHg 90%
    08:00 +24°C° 0.2 mm 1 mps 670 mmHg 87%
    09:00 +25°C° 0.2 mm 1 mps 670 mmHg 84%
    10:00 +26°C° 0.2 mm 1 mps 671 mmHg 80%
    11:00 +26°C° 0.5 mm 2 mps 670 mmHg 81%
    12:00 +26°C° 0.5 mm 2 mps 669 mmHg 82%
    13:00 +26°C° 0.5 mm 2 mps 668 mmHg 83%
    14:00 +26°C° 0.5 mm 2 mps 667 mmHg 84%
    15:00 +25°C° 0.5 mm 1 mps 667 mmHg 86%
    16:00 +25°C° 0.5 mm 1 mps 667 mmHg 87%
    17:00 +24°C° 0.4 mm 1 mps 667 mmHg 90%
    18:00 +23°C° 0.4 mm 1 mps 667 mmHg 93%
    19:00 +20°C° 0.4 mm 0 mps 668 mmHg 96%
    20:00 +20°C° 0.2 mm 0 mps 668 mmHg 96%
    21:00 +20°C° 0.2 mm 0 mps 669 mmHg 95%
    22:00 +20°C° 0.2 mm 0 mps 669 mmHg 94%
    23:00 +20°C° 0.4 mm 0 mps 669 mmHg 94%

    Day after tomorrow, 17 November, Sunday

    Time Temperature Precipitation Wind Pressure Humidity
    00:00 +20°C° 0.4 mm 0 mps 669 mmHg 94%
    01:00 +20°C° 0.4 mm 0 mps 668 mmHg 94%
    02:00 +20°C° 0.5 mm 0 mps 668 mmHg 94%
    03:00 +19°C° 0.5 mm 0 mps 668 mmHg 94%
    04:00 +19°C° 0.5 mm 0 mps 668 mmHg 94%
    05:00 +20°C° 0.1 mm 0 mps 668 mmHg 93%
    06:00 +20°C° 0.1 mm 0 mps 669 mmHg 92%
    07:00 +21°C° 0.1 mm 0 mps 669 mmHg 91%
    08:00 +24°C° 0.1 mm 1 mps 670 mmHg 86%
    09:00 +25°C° 0.1 mm 1 mps 670 mmHg 80%
    10:00 +27°C° 0.1 mm 1 mps 670 mmHg 75%
    11:00 +27°C° 0.4 mm 1 mps 669 mmHg 77%
    12:00 +27°C° 0.4 mm 2 mps 668 mmHg 79%
    13:00 +27°C° 0.4 mm 2 mps 667 mmHg 80%
    14:00 +26°C° 0.6 mm 2 mps 667 mmHg 83%
    15:00 +25°C° 0.6 mm 1 mps 666 mmHg 86%
    16:00 +25°C° 0.6 mm 1 mps 666 mmHg 89%
    17:00 +24°C° 0.7 mm 1 mps 667 mmHg 92%
    18:00 +23°C° 0.7 mm 1 mps 667 mmHg 94%
    19:00 +20°C° 0.7 mm 0 mps 668 mmHg 96%
    20:00 +20°C° 0.2 mm 0 mps 668 mmHg 95%
    21:00 +20°C° 0.2 mm 0 mps 669 mmHg 94%
    22:00 +20°C° 0.2 mm 0 mps 669 mmHg 93%
    23:00 +20°C° 0.2 mm 0 mps 669 mmHg 93%

    18 November, Monday

    Time Temperature Precipitation Wind Pressure Humidity
    00:00 +19°C° 0.2 mm 0 mps 669 mmHg 94%
    01:00 +19°C° 0.2 mm 0 mps 668 mmHg 94%
    02:00 +19°C° 0.3 mm 0 mps 668 mmHg 94%
    03:00 +19°C° 0.3 mm 0 mps 668 mmHg 95%
    04:00 +19°C° 0.3 mm 0 mps 668 mmHg 95%
    05:00 +20°C° 0.2 mm 0 mps 669 mmHg 95%
    06:00 +20°C° 0.2 mm 0 mps 669 mmHg 94%
    07:00 +20°C° 0.2 mm 0 mps 670 mmHg 94%
    08:00 +21°C° 0.2 mm 0 mps 670 mmHg 90%
    09:00 +24°C° 0.2 mm 1 mps 670 mmHg 86%
    10:00 +25°C° 0.2 mm 1 mps 670 mmHg 82%
    11:00 +25°C° 0.3 mm 1 mps 670 mmHg 81%
    12:00 +26°C° 0.3 mm 2 mps 669 mmHg 81%
    13:00 +26°C° 0.3 mm 2 mps 669 mmHg 80%
    14:00 +26°C° 0.4 mm 2 mps 668 mmHg 82%
    15:00 +25°C° 0.4 mm 1 mps 668 mmHg 84%
    16:00 +25°C° 0.4 mm 1 mps 667 mmHg 85%
    17:00 +24°C° 0.3 mm 1 mps 668 mmHg 89%
    18:00 +23°C° 0.3 mm 1 mps 668 mmHg 92%
    19:00 +20°C° 0.3 mm 0 mps 669 mmHg 96%
    20:00 +20°C° 0.1 mm 0 mps 669 mmHg 94%
    21:00 +19°C° 0.1 mm 0 mps 669 mmHg 92%
    22:00 +19°C° 0.1 mm 0 mps 670 mmHg 90%
    23:00 +19°C° 0 mm 0 mps 669 mmHg 89%

    19 November, Tuesday

    Time Temperature Precipitation Wind Pressure Humidity
    00:00 +18°C° 0 mm 0 mps 669 mmHg 87%
    01:00 +18°C° 0 mm 0 mps 669 mmHg 85%
    02:00 +18°C° 0 mm 0 mps 669 mmHg 85%
    03:00 +18°C° 0 mm 0 mps 669 mmHg 84%
    04:00 +20°C° 0 mm 1 mps 669 mmHg 83%
    05:00 +18°C° 0 mm 0 mps 669 mmHg 81%
    06:00 +19°C° 0 mm 0 mps 670 mmHg 79%
    07:00 +20°C° 0 mm 0 mps 671 mmHg 77%
    08:00 +23°C° 0 mm 1 mps 671 mmHg 74%
    09:00 +25°C° 0 mm 1 mps 671 mmHg 72%
    10:00 +26°C° 0 mm 1 mps 671 mmHg 70%
    11:00 +26°C° 0.1 mm 2 mps 671 mmHg 71%
    12:00 +27°C° 0.1 mm 2 mps 670 mmHg 73%
    13:00 +27°C° 0.1 mm 2 mps 669 mmHg 74%
    14:00 +26°C° 0.1 mm 2 mps 669 mmHg 77%
    15:00 +26°C° 0.1 mm 1 mps 669 mmHg 81%
    16:00 +25°C° 0.1 mm 1 mps 668 mmHg 84%
    17:00 +24°C° 0.3 mm 1 mps 669 mmHg 88%
    18:00 +23°C° 0.3 mm 1 mps 669 mmHg 92%
    19:00 +20°C° 0.3 mm 0 mps 669 mmHg 96%
    20:00 +20°C° 0.1 mm 0 mps 670 mmHg 96%
    21:00 +19°C° 0.1 mm 0 mps 670 mmHg 95%
    22:00 +19°C° 0.1 mm 0 mps 670 mmHg 95%
    23:00 +19°C° 0 mm 0 mps 670 mmHg 95%

    20 November, Wednesday

    Time Temperature Precipitation Wind Pressure Humidity
    00:00 +18°C° 0 mm 0 mps 670 mmHg 94%
    01:00 +18°C° 0 mm 0 mps 669 mmHg 94%
    02:00 +18°C° 0.1 mm 0 mps 669 mmHg 94%
    03:00 +18°C° 0.1 mm 0 mps 669 mmHg 93%
    04:00 +17°C° 0.1 mm 0 mps 669 mmHg 93%
    05:00 +18°C° 0 mm 0 mps 670 mmHg 90%
    06:00 +19°C° 0 mm 0 mps 670 mmHg 86%
    07:00 +20°C° 0 mm 0 mps 671 mmHg 83%
    08:00 +24°C° 0.1 mm 1 mps 671 mmHg 79%
    09:00 +25°C° 0.1 mm 1 mps 671 mmHg 74%
    10:00 +27°C° 0.1 mm 1 mps 672 mmHg 70%
    11:00 +27°C° 0.2 mm 2 mps 671 mmHg 71%
    12:00 +27°C° 0.2 mm 2 mps 670 mmHg 73%
    13:00 +27°C° 0.2 mm 2 mps 669 mmHg 75%
    14:00 +26°C° 0.2 mm 2 mps 669 mmHg 78%
    15:00 +26°C° 0.2 mm 2 mps 668 mmHg 81%
    16:00 +25°C° 0.2 mm 1 mps 668 mmHg 84%
    17:00 +24°C° 0.5 mm 1 mps 668 mmHg 87%
    18:00 +23°C° 0.5 mm 1 mps 669 mmHg 90%
    19:00 +20°C° 0.5 mm 0 mps 669 mmHg 93%
    20:00 +20°C° 0.2 mm 0 mps 670 mmHg 93%
    21:00 +19°C° 0.2 mm 0 mps 670 mmHg 92%
    22:00 +19°C° 0.2 mm 0 mps 670 mmHg 92%
    23:00 +19°C° 0.3 mm 0 mps 670 mmHg 91%
    Show more